| time (UTC) | temp F | wind direction | speed knots | gust knots | rain 1hr in | rain 24hr in | rain mn in | humidity % | barometer mb |
| 20260507163520 | 62 | 47 | 1.7 | 4.3 | 0.00 | 0.00 | 0.00 | 53 | 996.1 |
| 20260507162537 | 61 | 51 | 1.7 | 4.3 | 0.00 | 0.00 | 0.00 | 53 | 996.1 |
| 20260507161517 | 61 | 44 | 2.6 | 5.2 | 0.00 | 0.00 | 0.00 | 54 | 996.1 |
| 20260507160518 | 63 | 34 | 1.7 | 5.2 | 0.00 | 0.00 | 0.00 | 52 | 996.1 |
| 20260507155520 | 64 | 274 | 1.7 | 4.3 | 0.00 | 0.00 | 0.00 | 51 | 996.2 |
| 20260507154516 | 64 | 251 | 0.0 | 0.9 | 0.00 | 0.00 | 0.00 | 51 | 996.2 |
| 20260507153517 | 64 | 221 | 0.9 | 5.2 | 0.00 | 0.00 | 0.00 | 50 | 996.1 |
| 20260507152518 | 65 | 172 | 1.7 | 3.5 | 0.00 | 0.00 | 0.00 | 52 | 996.1 |
| 20260507151539 | 64 | 179 | 1.7 | 4.3 | 0.00 | 0.00 | 0.00 | 53 | 996.3 |
| 20260507150520 | 64 | 225 | 1.7 | 4.3 | 0.00 | 0.00 | 0.00 | 51 | 996.3 |
| 20260507145516 | 64 | 205 | 1.7 | 3.5 | 0.00 | 0.00 | 0.00 | 53 | 996.3 |
| 20260507144557 | 63 | 186 | 1.7 | 4.3 | 0.00 | 0.00 | 0.00 | 53 | 996.3 |
| 20260507143519 | 62 | 217 | 0.9 | 2.6 | 0.00 | 0.00 | 0.00 | 54 | 996.5 |
| 20260507142520 | 61 | 276 | 0.9 | 2.6 | 0.00 | 0.00 | 0.00 | 55 | 996.6 |
| 20260507141516 | 62 | 245 | 0.9 | 3.5 | 0.00 | 0.00 | 0.00 | 54 | 996.6 |
| 20260507140517 | 62 | 312 | 0.0 | 1.7 | 0.00 | 0.00 | 0.00 | 55 | 996.8 |
| 20260507135519 | 61 | 74 | 0.9 | 1.7 | 0.00 | 0.00 | 0.00 | 54 | 996.9 |
| 20260507134520 | 61 | 30 | 2.6 | 5.2 | 0.00 | 0.00 | 0.00 | 54 | 996.9 |
| 20260507133515 | 63 | 40 | 3.5 | 6.1 | 0.00 | 0.00 | 0.00 | 52 | 996.9 |
| 20260507132517 | 63 | 330 | 1.7 | 4.3 | 0.00 | 0.00 | 0.00 | 54 | 996.8 |
| 20260507131538 | 62 | 202 | 2.6 | 4.3 | 0.00 | 0.00 | 0.00 | 54 | 996.9 |
| 20260507130519 | 61 | 191 | 2.6 | 4.3 | 0.00 | 0.00 | 0.00 | 54 | 997.0 |
| 20260507125520 | 62 | 246 | 1.7 | 5.2 | 0.00 | 0.00 | 0.00 | 56 | 996.9 |
| 20260507124516 | 61 | 167 | 0.9 | 2.6 | 0.00 | 0.00 | 0.00 | 56 | 997.0 |
| 20260507123538 | 60 | 48 | 0.9 | 2.6 | 0.00 | 0.00 | 0.00 | 56 | 997.0 |
| 20260507122519 | 59 | 28 | 0.9 | 4.3 | 0.00 | 0.00 | 0.00 | 56 | 997.0 |
| 20260507121520 | 59 | 50 | 0.9 | 2.6 | 0.00 | 0.00 | 0.00 | 59 | 997.0 |
| 20260507120516 | 60 | 20 | 3.5 | 6.1 | 0.00 | 0.00 | 0.00 | 57 | 997.0 |
| 20260507115517 | 61 | 21 | 4.3 | 7.8 | 0.00 | 0.00 | 0.00 | 58 | 996.9 |
| 20260507114518 | 60 | 346 | 0.9 | 4.3 | 0.00 | 0.00 | 0.00 | 55 | 997.0 |
| 20260507113519 | 60 | 45 | 1.7 | 4.3 | 0.00 | 0.00 | 0.00 | 54 | 997.0 |
| 20260507112516 | 60 | 47 | 2.6 | 7.8 | 0.00 | 0.00 | 0.00 | 56 | 997.0 |
| 20260507111516 | 59 | 73 | 2.6 | 6.1 | 0.00 | 0.00 | 0.00 | 58 | 997.1 |
| 20260507110518 | 59 | 33 | 5.2 | 8.7 | 0.00 | 0.00 | 0.00 | 59 | 997.1 |
| 20260507105539 | 58 | 42 | 0.9 | 2.6 | 0.00 | 0.00 | 0.00 | 62 | 997.2 |
| 20260507104520 | 59 | 40 | 1.7 | 6.1 | 0.00 | 0.00 | 0.00 | 63 | 997.2 |
| 20260507103521 | 59 | 192 | 0.9 | 2.6 | 0.00 | 0.00 | 0.00 | 66 | 997.2 |
| 20260507102517 | 59 | 355 | 2.6 | 4.3 | 0.00 | 0.00 | 0.00 | 66 | 997.2 |
| 20260507101518 | 58 | 28 | 2.6 | 6.1 | 0.00 | 0.00 | 0.00 | 67 | 997.2 |
| 20260507100519 | 57 | 58 | 2.6 | 5.2 | 0.00 | 0.00 | 0.00 | 66 | 997.3 |
| 20260507095520 | 57 | 30 | 3.5 | 7.0 | 0.00 | 0.00 | 0.00 | 67 | 997.3 |
| 20260507094516 | 56 | 74 | 1.7 | 6.1 | 0.00 | 0.00 | 0.00 | 68 | 997.3 |
| 20260507093517 | 57 | 53 | 3.5 | 7.8 | 0.00 | 0.00 | 0.00 | 69 | 997.3 |
| 20260507092518 | 57 | 32 | 4.3 | 8.7 | 0.00 | 0.00 | 0.00 | 70 | 997.2 |
| 20260507091539 | 57 | 11 | 2.6 | 5.2 | 0.00 | 0.00 | 0.00 | 72 | 997.2 |
| 20260507090520 | 56 | 55 | 2.6 | 5.2 | 0.00 | 0.00 | 0.00 | 73 | 997.2 |
| 20260507085516 | 56 | 45 | 1.7 | 6.1 | 0.00 | 0.00 | 0.00 | 74 | 997.1 |
| 20260507084517 | 55 | 47 | 1.7 | 3.5 | 0.00 | 0.00 | 0.00 | 74 | 997.1 |
| 20260507083518 | 55 | 255 | 1.7 | 4.3 | 0.00 | 0.00 | 0.00 | 75 | 997.1 |
| 20260507082519 | 54 | 45 | 1.7 | 4.3 | 0.00 | 0.00 | 0.00 | 77 | 997.1 |
| 20260507081520 | 54 | 70 | 0.9 | 3.5 | 0.00 | 0.00 | 0.00 | 79 | 997.1 |
| 20260507080517 | 54 | 327 | 0.9 | 2.6 | 0.00 | 0.01 | 0.00 | 83 | 997.0 |
| 20260507075518 | 53 | 0.0 | 0.0 | 0.00 | 0.01 | 0.00 | 84 | 997.1 | |
| 20260507074519 | 52 | 0.0 | 0.0 | 0.00 | 0.01 | 0.00 | 85 | 997.0 | |
| 20260507073520 | 52 | 29 | 0.9 | 3.5 | 0.00 | 0.01 | 0.00 | 87 | 997.0 |
| 20260507072517 | 51 | 31 | 0.9 | 2.6 | 0.00 | 0.01 | 0.00 | 89 | 996.9 |
| 20260507071518 | 50 | 45 | 0.0 | 2.6 | 0.00 | 0.01 | 0.00 | 89 | 996.9 |
| 20260507070519 | 50 | 20 | 0.0 | 1.7 | 0.00 | 0.01 | 0.00 | 91 | 996.8 |
| 20260507065540 | 49 | 5 | 0.0 | 2.6 | 0.00 | 0.01 | 0.00 | 93 | 996.8 |
| 20260507064516 | 49 | 0.0 | 0.0 | 0.00 | 0.01 | 0.00 | 94 | 996.8 | |
| 20260507063517 | 49 | 0.0 | 0.0 | 0.00 | 0.01 | 0.00 | 94 | 996.7 | |
| 20260507062519 | 48 | 35 | 0.0 | 1.7 | 0.00 | 0.01 | 0.00 | 95 | 996.6 |
| 20260507061520 | 48 | 0.0 | 0.0 | 0.00 | 0.01 | 0.00 | 95 | 996.6 | |
| 20260507060516 | 48 | 53 | 0.9 | 2.6 | 0.00 | 0.01 | 0.00 | 96 | 996.6 |
| 20260507055517 | 47 | 49 | 0.9 | 2.6 | 0.00 | 0.01 | 0.00 | 96 | 996.5 |
| 20260507054518 | 47 | 10 | 0.0 | 1.7 | 0.00 | 0.01 | 0.00 | 96 | 996.4 |
| 20260507053519 | 47 | 12 | 0.0 | 1.7 | 0.00 | 0.01 | 0.00 | 96 | 996.3 |
| 20260507052516 | 47 | 59 | 0.9 | 1.7 | 0.00 | 0.01 | 0.00 | 97 | 996.3 |
| 20260507051517 | 46 | 56 | 0.0 | 0.9 | 0.00 | 0.01 | 0.00 | 97 | 996.3 |
| 20260507050518 | 46 | 49 | 0.0 | 1.7 | 0.00 | 0.01 | 0.00 | 97 | 996.2 |
| 20260507045619 | 46 | 0.0 | 0.0 | 0.00 | 0.01 | 0.00 | 96 | 996.2 | |
| 20260507044521 | 45 | 0.0 | 0.0 | 0.00 | 0.02 | 0.00 | 96 | 996.1 | |
| 20260507043516 | 45 | 0.0 | 0.0 | 0.00 | 0.02 | 0.00 | 96 | 996.0 | |
| 20260507042517 | 45 | 0.0 | 0.0 | 0.00 | 0.02 | 0.00 | 96 | 995.9 | |
| 20260507041519 | 45 | 0.0 | 0.0 | 0.00 | 0.02 | 0.00 | 96 | 995.8 | |
| 20260507040540 | 45 | 0.0 | 0.0 | 0.00 | 0.03 | 0.00 | 96 | 995.8 | |
| 20260507035516 | 45 | 0.0 | 0.0 | 0.00 | 0.03 | 0.00 | 96 | 995.8 | |
| 20260507034537 | 45 | 0.0 | 0.0 | 0.00 | 0.03 | 0.00 | 95 | 995.8 | |
| 20260507033539 | 46 | 0.0 | 0.0 | 0.00 | 0.03 | 0.00 | 95 | 995.7 | |
| 20260507032520 | 46 | 0.0 | 0.0 | 0.00 | 0.04 | 0.00 | 95 | 995.7 | |
| 20260507031516 | 46 | 0.0 | 0.0 | 0.00 | 0.05 | 0.00 | 95 | 995.7 | |
| 20260507030537 | 46 | 0.0 | 0.0 | 0.00 | 0.06 | 0.00 | 95 | 995.8 | |
| 20260507025518 | 46 | 0.0 | 0.0 | 0.00 | 0.06 | 0.00 | 95 | 995.8 | |
| 20260507024559 | 46 | 0.0 | 0.0 | 0.00 | 0.07 | 0.00 | 95 | 995.8 | |
| 20260507023515 | 46 | 0.0 | 0.0 | 0.00 | 0.08 | 0.00 | 95 | 995.8 | |
| 20260507022517 | 46 | 240 | 0.0 | 0.9 | 0.00 | 0.08 | 0.00 | 96 | 995.7 |
| 20260507021518 | 46 | 0.0 | 0.0 | 0.00 | 0.09 | 0.00 | 96 | 995.6 | |
| 20260507020519 | 46 | 251 | 0.0 | 1.7 | 0.00 | 0.09 | 0.00 | 96 | 995.6 |
| 20260507015520 | 46 | 0.0 | 0.0 | 0.00 | 0.09 | 0.00 | 96 | 995.5 | |
| 20260507014526 | 46 | 0.0 | 0.0 | 0.00 | 0.09 | 0.00 | 96 | 995.5 | |
| 20260507013522 | 45 | 0.0 | 0.0 | 0.00 | 0.10 | 0.00 | 96 | 995.4 | |
| 20260507012523 | 45 | 0.0 | 0.9 | 0.00 | 0.10 | 0.00 | 96 | 995.5 | |
| 20260507011525 | 45 | 211 | 0.0 | 0.9 | 0.00 | 0.10 | 0.00 | 96 | 995.5 |
| 20260507010526 | 45 | 208 | 0.9 | 1.7 | 0.00 | 0.11 | 0.00 | 96 | 995.5 |
| 20260507005522 | 45 | 0.0 | 0.0 | 0.00 | 0.11 | 0.00 | 96 | 995.4 | |
| 20260507004523 | 45 | 0.0 | 0.0 | 0.00 | 0.12 | 0.00 | 96 | 995.4 | |
| 20260507003525 | 45 | 0.0 | 0.0 | 0.00 | 0.13 | 0.00 | 96 | 995.4 | |
| 20260507002526 | 45 | 0.0 | 0.0 | 0.00 | 0.15 | 0.00 | 97 | 995.4 | |
| 20260507001542 | 45 | 0.0 | 0.0 | 0.00 | 0.16 | 0.00 | 97 | 995.4 | |
| 20260507000523 | 44 | 0.0 | 0.0 | 0.00 | 0.16 | 0.00 | 97 | 995.4 | |
| 20260506235524 | 44 | 0.0 | 0.0 | 0.00 | 0.17 | 0.00 | 96 | 995.4 | |
| 20260506234526 | 43 | 0.0 | 0.0 | 0.00 | 0.17 | 0.00 | 97 | 995.5 | |
| 20260506233522 | 42 | 0.0 | 0.0 | 0.00 | 0.17 | 0.00 | 96 | 995.5 | |
| 20260506232523 | 42 | 0.0 | 0.0 | 0.00 | 0.17 | 0.00 | 96 | 995.4 | |
| 20260506231524 | 42 | 0.0 | 0.0 | 0.00 | 0.17 | 0.00 | 95 | 995.4 | |
| 20260506230526 | 42 | 0.0 | 0.0 | 0.00 | 0.18 | 0.00 | 95 | 995.4 | |
| 20260506225602 | 42 | 0.0 | 0.0 | 0.00 | 0.18 | 0.00 | 95 | 995.4 | |
| 20260506224518 | 42 | 0.0 | 0.0 | 0.00 | 0.18 | 0.00 | 95 | 995.4 | |
| 20260506223519 | 43 | 0.0 | 0.0 | 0.00 | 0.18 | 0.00 | 95 | 995.3 | |
| 20260506222515 | 43 | 0.0 | 0.0 | 0.00 | 0.19 | 0.00 | 94 | 995.3 | |
| 20260506221516 | 43 | 0.0 | 0.0 | 0.00 | 0.19 | 0.00 | 94 | 995.3 | |
| 20260506220517 | 43 | 0.0 | 0.0 | 0.00 | 0.19 | 0.00 | 93 | 995.2 | |
| 20260506215519 | 43 | 0.0 | 0.0 | 0.00 | 0.19 | 0.19 | 93 | 995.2 | |
| 20260506214520 | 44 | 0.0 | 0.0 | 0.00 | 0.20 | 0.19 | 93 | 995.1 | |
| 20260506213516 | 44 | 0.0 | 0.0 | 0.00 | 0.20 | 0.19 | 93 | 995.1 | |
| 20260506212517 | 44 | 0.0 | 0.0 | 0.00 | 0.21 | 0.19 | 92 | 995.1 | |
| 20260506211538 | 45 | 0.0 | 0.0 | 0.00 | 0.24 | 0.19 | 91 | 995.1 | |
| 20260506210519 | 45 | 0.0 | 0.0 | 0.00 | 0.24 | 0.19 | 91 | 995.1 | |
| 20260506205521 | 46 | 0.0 | 0.0 | 0.00 | 0.26 | 0.19 | 90 | 995.0 | |
| 20260506204516 | 46 | 0.0 | 0.0 | 0.00 | 0.28 | 0.19 | 89 | 994.9 | |
| 20260506203538 | 47 | 0.0 | 0.0 | 0.00 | 0.31 | 0.19 | 88 | 994.9 | |
| 20260506202539 | 48 | 0.0 | 0.0 | 0.00 | 0.35 | 0.19 | 88 | 994.8 | |
| 20260506201520 | 48 | 280 | 0.0 | 1.7 | 0.00 | 0.39 | 0.19 | 89 | 994.8 |
| 20260506200536 | 48 | 0.0 | 1.7 | 0.00 | 0.43 | 0.19 | 89 | 994.6 | |
| 20260506195517 | 48 | 0.0 | 0.0 | 0.00 | 0.46 | 0.19 | 89 | 994.5 | |
| 20260506194518 | 49 | 0.0 | 0.0 | 0.00 | 0.47 | 0.19 | 88 | 994.3 | |
| 20260506193520 | 49 | 217 | 0.0 | 0.9 | 0.00 | 0.47 | 0.19 | 87 | 994.2 |
| 20260506192516 | 49 | 0.0 | 0.0 | 0.00 | 0.48 | 0.19 | 85 | 994.0 | |
| 20260506191517 | 50 | 0.0 | 0.0 | 0.00 | 0.48 | 0.19 | 84 | 993.9 | |
| 20260506190518 | 50 | 0.0 | 0.0 | 0.00 | 0.50 | 0.19 | 83 | 993.8 | |
| 20260506185519 | 51 | 277 | 0.0 | 0.0 | 0.00 | 0.50 | 0.19 | 82 | 993.8 |
| 20260506184520 | 51 | 257 | 0.0 | 0.9 | 0.00 | 0.52 | 0.19 | 82 | 993.7 |
| 20260506183516 | 52 | 320 | 0.0 | 1.7 | 0.00 | 0.54 | 0.19 | 81 | 993.6 |
| 20260506182518 | 52 | 16 | 0.0 | 1.7 | 0.00 | 0.55 | 0.19 | 80 | 993.5 |
| 20260506181519 | 53 | 283 | 0.0 | 1.7 | 0.00 | 0.56 | 0.19 | 78 | 993.4 |
| 20260506180515 | 53 | 291 | 0.0 | 3.5 | 0.00 | 0.57 | 0.19 | 77 | 993.3 |
| 20260506175516 | 54 | 41 | 0.9 | 2.6 | 0.00 | 0.57 | 0.19 | 76 | 993.2 |
| 20260506174517 | 54 | 29 | 2.6 | 7.0 | 0.00 | 0.59 | 0.19 | 75 | 993.1 |
| 20260506173558 | 55 | 14 | 4.3 | 10.4 | 0.00 | 0.60 | 0.19 | 75 | 993.0 |
| 20260506172559 | 55 | 41 | 3.5 | 7.8 | 0.00 | 0.61 | 0.19 | 76 | 992.8 |
| 20260506171515 | 55 | 13 | 3.5 | 8.7 | 0.00 | 0.64 | 0.19 | 75 | 992.8 |
| 20260506170516 | 55 | 16 | 3.5 | 7.8 | 0.00 | 0.66 | 0.19 | 75 | 992.7 |
| 20260506165517 | 55 | 34 | 2.6 | 7.8 | 0.00 | 0.68 | 0.19 | 76 | 992.7 |
| 20260506164518 | 54 | 33 | 2.6 | 7.0 | 0.00 | 0.69 | 0.19 | 77 | 992.7 |